This demonstration page uses our WeatherBlox Daily Observations layout. Learn more.

Left ArrowRight Arrow

39.92423, -83.80882

Hourly Observations for July 6, 2022

Temp ( °F °C ) Dew Point ( °F °C ) Humidity (%) Winds ( mph kmh ) Pressure ( in mb ) Visibility ( mi km ) Precip ( " mm )
12:08 am 00:08 Mostly Clear with Nearby Thunderstorms 77 25 77 25 100 100 SSW 13 20 29.85 1011 10 16 0.00 0.00
12:23 am 00:23 Mostly Clear 77 25 N/A N/A SSW 12 19 29.86 1011 10 16 0.00 0.00
12:56 am 00:56 Clear 77 25 N/A N/A SW 12 19 29.86 1011 10 16 0.00 0.00
1:06 am 01:06 Mostly Clear with Nearby Thunderstorms 77 25 N/A N/A WNW 6 9 29.88 1012 10 16 0.00 0.00
1:21 am 01:21 Partly Cloudy 77 25 N/A N/A Calm 29.88 1012 10 16 0.00 0.00
1:32 am 01:32 Mostly Clear with Thunderstorms 77 25 N/A N/A SSW 6 9 29.87 1012 10 16 0.00 0.00
1:56 am 01:56 Mostly Clear with Nearby Thunderstorms 77 25 N/A N/A SW 3 6 29.91 1013 10 16 0.00 0.00
2:29 am 02:29 Mostly Cloudy 75 24 N/A N/A ESE 6 9 29.89 1012 10 16 0.00 0.00
2:46 am 02:46 Mostly Cloudy 75 24 N/A N/A E 8 13 29.90 1012 10 16 0.00 0.00
2:56 am 02:56 Cloudy 75 24 N/A N/A ESE 13 20 29.91 1013 10 16 0.00 0.00
3:07 am 03:07 Cloudy 73 23 N/A N/A SE 9 15 29.90 1013 10 16 0.00 0.00
3:56 am 03:56 Cloudy 73 23 N/A N/A ESE 8 13 29.92 1013 10 16 0.00 0.00
4:15 am 04:15 Mostly Cloudy with Nearby Thunderstorms 73 23 N/A N/A N 17 28 29.92 1013 10 16 0.00 0.00
4:24 am 04:24 Mostly Cloudy with Thunderstorms 73 23 N/A N/A N 13 20 29.92 1013 10 16 0.00 0.00
4:35 am 04:35 Cloudy with Strong Thunderstorms 73 23 N/A N/A VRB 6 9 29.95 1014 3 4 0.00 0.00
4:39 am 04:39 Cloudy with Strong Thunderstorms 73 23 N/A N/A E 10 17 29.93 1014 1 2 0.00 0.00
4:46 am 04:46 Cloudy with Thunderstorms 73 23 N/A N/A E 9 15 29.92 1013 2 3 0.00 0.00
4:52 am 04:52 Mostly Cloudy with Thunderstorms N/A N/A N/A ESE 7 11 N/A 9 14 0.00 0.00
4:56 am 04:56 Mostly Cloudy with Thunderstorms N/A N/A N/A ESE 6 9 N/A 10 16 0.00 0.00
5:40 am 05:40 Cloudy with Nearby Thunderstorms N/A N/A N/A E 10 17 N/A 10 16 0.00 0.00
5:48 am 05:48 Cloudy N/A N/A N/A ESE 8 13 N/A 10 16 0.00 0.00
5:56 am 05:56 Cloudy N/A N/A N/A ESE 9 15 N/A 10 16 0.00 0.00
6:56 am 06:56 Partly Cloudy N/A N/A N/A SSE 9 15 N/A 10 16 0.00 0.00
7:56 am 07:56 Sunny 72 22 N/A N/A S 6 9 29.93 1014 10 16 0.00 0.00
8:20 am 08:20 Partly Cloudy 72 22 N/A N/A S 7 11 29.93 1014 10 16 0.00 0.00
8:56 am 08:56 Mostly Cloudy 73 23 N/A N/A S 8 13 29.93 1014 10 16 0.00 0.00
9:56 am 09:56 Mostly Cloudy 75 23.9 75 23.9 100 100 ENE 10 17 29.94 1014 10 16 0.00 0.00
10:05 am 10:05 Mostly Cloudy 75 24 75 24 100 100 E 3 6 29.93 1013 10 16 0.00 0.00
10:17 am 10:17 Cloudy with Nearby Thunderstorms 75 24 N/A N/A NE 6 9 29.94 1014 10 16 0.00 0.00
10:38 am 10:38 Cloudy with Nearby Thunderstorms 75 24 N/A N/A E 8 13 29.93 1013 10 16 0.00 0.00
10:56 am 10:56 Cloudy with Nearby Thunderstorms 78 25.6 78 25.6 100 100 E 10 17 29.94 1014 10 16 0.00 0.00
11:21 am 11:21 Cloudy with Strong Thunderstorms 72 22 N/A N/A NNE 15 24 29.94 1014 3 4 0.00 0.00
11:30 am 11:30 Cloudy with Strong Thunderstorms 72 22 N/A N/A NNE 10 17 29.93 1014 1 2 0.00 0.00
11:34 am 11:34 Cloudy with Strong Thunderstorms 72 22 N/A N/A ENE 20 31 29.92 1013 1 1 0.00 0.00
11:39 am 11:39 Mostly Cloudy with Thunderstorms 72 22 N/A N/A ESE 16 26 29.90 1013 1 2 0.00 0.00
11:42 am 11:42 Mostly Cloudy with Thunderstorms N/A N/A N/A ESE 14 22 N/A 2 3 0.00 0.00
11:45 am 11:45 Mostly Cloudy with Thunderstorms N/A N/A N/A ESE 7 11 N/A 9 14 0.00 0.00
11:53 am 11:53 Partly Cloudy with Nearby Thunderstorms N/A N/A N/A ENE 5 7 N/A 7 11 0.00 0.00
11:56 am 11:56 Partly Cloudy with Nearby Thunderstorms N/A N/A N/A ENE 5 7 N/A 7 11 0.00 0.00
12:01 pm 12:01 Mostly Cloudy with Nearby Thunderstorms N/A N/A N/A VRB 6 9 N/A 10 16 0.00 0.00
12:13 pm 12:13 Mostly Cloudy 73 23 N/A N/A ESE 6 9 29.92 1013 10 16 0.00 0.00
12:35 pm 12:35 Cloudy with Nearby Thunderstorms 73 23 N/A N/A N 10 17 29.96 1015 10 16 0.00 0.00
12:42 pm 12:42 Cloudy with Nearby Thunderstorms 73 23 N/A N/A N 15 24 29.97 1015 10 16 0.00 0.00
12:53 pm 12:53 Cloudy with Nearby Thunderstorms 72 22 N/A N/A W 8 13 29.99 1016 3 4 0.00 0.00
12:56 pm 12:56 Cloudy with Nearby Thunderstorms 70 21 N/A N/A W 15 24 30.00 1016 2 3 0.00 0.00
1:03 pm 13:03 Cloudy with Strong Thunderstorms 70 21 N/A N/A NW 9 15 29.96 1014 2 3 0.00 0.00
1:09 pm 13:09 Cloudy with Strong Thunderstorms 70 21 N/A N/A NNW 5 7 29.95 1014 4 6 0.00 0.00
1:56 pm 13:56 Mostly Cloudy with Thunderstorms N/A N/A N/A SE 8 13 N/A 10 16 0.00 0.00
2:15 pm 14:15 Cloudy N/A N/A N/A S 9 15 N/A 10 16 0.00 0.00
2:56 pm 14:56 Cloudy 73 23 N/A N/A ESE 6 9 29.91 1013 10 16 0.00 0.00
3:56 pm 15:56 Mostly Cloudy with Light Rain 72 22 N/A N/A Calm 29.94 1014 8 13 0.00 0.00
4:13 pm 16:13 Mostly Cloudy N/A N/A N/A NE 9 15 N/A 10 16 0.00 0.00
4:29 pm 16:29 Cloudy with Light Rain N/A N/A N/A Calm N/A 10 16 0.00 0.00
4:56 pm 16:56 Mostly Cloudy N/A N/A N/A ENE 6 9 N/A 10 16 0.00 0.00
5:06 pm 17:06 Mostly Sunny N/A N/A N/A Calm N/A 10 16 0.00 0.00
5:56 pm 17:56 Mostly Cloudy 73 23 N/A N/A Calm 29.91 1013 10 16 0.00 0.00
6:56 pm 18:56 Cloudy 73 23 N/A N/A Calm 29.91 1013 10 16 0.00 0.00
7:56 pm 19:56 Cloudy with Light Rain 73 23 N/A N/A Calm 29.94 1014 6 10 0.00 0.00
8:56 pm 20:56 Partly Cloudy 73 23 N/A N/A Calm 29.94 1014 10 16 0.00 0.00
9:42 pm 21:42 Mostly Cloudy with Haze N/A N/A N/A WNW 3 6 N/A 6 10 0.00 0.00
9:56 pm 21:56 Cloudy with Haze N/A N/A N/A NNW 5 7 N/A 6 10 0.00 0.00
10:56 pm 22:56 Cloudy 73 23 N/A N/A ENE 6 9 29.98 1015 10 16 0.00 0.00
11:56 pm 23:56 Cloudy 72 22 N/A N/A NNE 10 17 29.96 1015 10 16 0.00 0.00

Powered by AerisWeather